sat.trackr.live / text

‹ back to catalog

STARLINK-2303

NORAD 47981 · 2021-024E

PAYLOAD ACTIVE UNKNOWN

§ Identity

Operator
Country
US
Launch date
2021-03-24
Launch site
AFETR
Launch vehicle
Mass (kg)
RCS (m²)

Purposes: comms

External: N2YO · Heavens-Above · Gunter

§ Orbital elements

Epoch: 2026-09-20T02:04:10.286688Z

Period
94.01 min
Inclination
53.1602°
Eccentricity
0.0001398
Mean motion
15.31693684 rev/d
Perigee alt
469.8 km
Apogee alt
471.7 km
Semi-major
6,848.9 km
B*
1.0014e-4
RAAN
147.7613°
Arg perigee
85.3402°
Mean anomaly
274.7759°
Rev number
30,441

§ Raw data

STARLINK-23031 47981U 21024E   26263.08623017  .00002743  00000+0  10014-3 0  99982 47981  53.1602 147.7613 0001398  85.3402 274.7759 15.31693684304419

JSON: /api/v1/satellites/47981 · /tle

For live sub-satellite position, see the globe view (requires WebGL).

§ Visibility from observer

Set your observer location to see the next 7 days of passes ≥ 10°. The values pass through the URL so the page stays shareable.

No JS? Fill the form by hand. The geolocation button needs JavaScript.